KJ6GEA Weather Reports


time (UTC)temp
C
wind
direction
speed
KPH
gust
KPH
rain 1hr
cm
rain 24hr
cm
rain mn
cm
humidity
%
barometer
mb
20260507084305 12 231 1.6 8.0 0.00 0.00 0.00 90 1019.4
20260507084255 12 248 3.2 9.7 0.00 0.00 0.00 90 1019.4
20260507083251 12 221 3.2 9.7 0.00 0.00 0.00 90 1019.4
20260507082741 12 232 3.2 9.7 0.00 0.00 0.00 90 1019.4
20260507082235 12 231 3.2 9.7 0.00 0.00 0.00 90 1019.4
20260507081732 12 217 3.2 9.7 0.00 0.00 0.00 90 1019.4
20260507081232 12 215 3.2 11.3 0.00 0.00 0.00 90 1019.4
20260507080741 12 281 3.2 11.3 0.00 0.00 0.00 90 1019.4
20260507080733 12 220 3.2 11.3 0.00 0.00 0.00 90 1019.4
20260507075724 12 284 4.8 11.3 0.00 0.00 0.00 90 1019.4
20260507075230 12 229 6.4 14.5 0.00 0.00 0.00 90 1019.5
20260507075223 12 255 4.8 14.5 0.00 0.00 0.00 90 1019.4
20260507074839 12 250 4.8 11.3 0.00 0.00 0.00 90 1019.5
20260507073718 12 243 4.8 11.3 0.00 0.00 0.00 90 1019.5
20260507073219 12 228 4.8 11.3 0.00 0.00 0.00 90 1019.5
20260507072719 12 276 4.8 14.5 0.00 0.00 0.00 90 1019.5
20260507072213 12 205 4.8 16.1 0.00 0.00 0.00 90 1019.5
20260507071712 12 199 4.8 16.1 0.00 0.00 0.00 90 1019.5
20260507071212 12 238 6.4 16.1 0.00 0.00 0.00 90 1019.5
20260507070711 12 224 6.4 16.1 0.00 0.00 0.00 90 1019.5
20260507070232 12 221 6.4 17.7 0.00 0.00 0.00 90 1019.6
20260507070223 12 251 6.4 17.7 0.00 0.00 0.00 90 1019.6
20260507065832 12 242 4.8 14.5 0.00 0.00 0.00 90 1019.6
20260507064713 12 221 4.8 12.9 0.00 0.00 0.00 90 1019.5
20260507064221 12 246 4.8 12.9 0.00 0.00 0.00 90 1019.5
20260507064213 12 257 4.8 12.9 0.00 0.00 0.00 90 1019.5
20260507063205 12 293 6.4 17.7 0.00 0.00 0.00 90 1019.5
20260507062704 12 222 6.4 17.7 0.00 0.00 0.00 90 1019.5
20260507062212 12 309 6.4 16.1 0.00 0.00 0.00 90 1019.5
20260507062204 12 206 6.4 14.5 0.00 0.00 0.00 90 1019.5
20260507061213 12 266 6.4 16.1 0.00 0.00 0.00 89 1019.5
20260507060705 12 242 4.8 12.9 0.00 0.00 0.00 89 1019.5
20260507060207 12 237 4.8 14.5 0.00 0.00 0.00 89 1019.6
20260507060201 12 229 3.2 11.3 0.00 0.00 0.00 89 1019.6
20260507055657 12 297 3.2 11.3 0.00 0.00 0.00 89 1019.6
20260507055150 12 258 3.2 14.5 0.00 0.00 0.00 89 1019.6
20260507054148 12 228 4.8 14.5 0.00 0.00 0.00 89 1019.6
20260507053648 13 258 4.8 14.5 0.00 0.00 0.00 88 1019.6
20260507053156 13 277 4.8 14.5 0.00 0.00 0.00 88 1019.8
20260507053148 13 203 3.2 14.5 0.00 0.00 0.00 88 1019.8
20260507052148 13 247 4.8 14.5 0.00 0.00 0.00 88 1019.8
20260507051647 13 249 4.8 14.5 0.00 0.00 0.00 88 1020.0
20260507051149 13 262 4.8 14.5 0.00 0.00 0.00 87 1020.0
20260507050647 13 222 6.4 14.5 0.00 0.00 0.00 87 1020.0
20260507050149 13 240 4.8 14.5 0.00 0.00 0.00 87 1020.0
20260507045648 13 263 4.8 12.9 0.00 0.00 0.00 86 1020.0
20260507045148 13 229 3.2 12.9 0.00 0.00 0.00 86 1020.0
20260507044649 13 252 1.6 8.0 0.00 0.00 0.00 86 1019.7
20260507044144 13 265 1.6 8.0 0.00 0.00 0.00 86 1019.7
20260507044136 13 250 3.2 8.0 0.00 0.00 0.00 86 1019.7
20260507043756 13 230 3.2 9.7 0.00 0.00 0.00 86 1019.7
20260507043743 13 243 1.6 9.7 0.00 0.00 0.00 86 1019.7
20260507042134 13 305 1.6 8.0 0.00 0.00 0.00 86 1019.7
20260507041635 13 296 1.6 6.4 0.00 0.00 0.00 86 1019.5
20260507041628 13 271 3.2 9.7 0.00 0.00 0.00 85 1019.5
20260507040621 13 279 3.2 9.7 0.00 0.00 0.00 85 1019.5
20260507040119 13 296 3.2 11.3 0.00 0.00 0.00 85 1019.5
20260507035621 13 244 4.8 11.3 0.00 0.00 0.00 85 1019.5
20260507035116 13 219 6.4 19.3 0.00 0.00 0.00 85 1019.5
20260507034622 13 283 6.4 14.5 0.00 0.00 0.00 84 1019.5
20260507034615 13 207 6.4 19.3 0.00 0.00 0.00 84 1019.5
20260507033620 14 233 6.4 16.1 0.00 0.00 0.00 83 1019.5
20260507033612 13 229 6.4 14.5 0.00 0.00 0.00 84 1019.5
20260507033112 14 237 6.4 16.1 0.00 0.00 0.00 84 1019.5
20260507032109 14 233 6.4 20.9 0.00 0.00 0.00 83 1019.4
20260507032101 14 238 6.4 16.1 0.00 0.00 0.00 83 1019.5
20260507031103 14 252 6.4 20.9 0.00 0.00 0.00 82 1019.4
20260507030612 14 271 6.4 16.1 0.00 0.00 0.00 82 1019.4
20260507030106 15 211 6.4 16.1 0.00 0.00 0.00 82 1019.4
20260507025609 15 247 8.0 22.5 0.00 0.00 0.00 82 1019.4
20260507025602 15 266 6.4 19.3 0.00 0.00 0.00 82 1019.4
20260507024603 15 281 11.3 24.1 0.00 0.00 0.00 81 1019.4
20260507024558 15 226 9.7 22.5 0.00 0.00 0.00 81 1019.4
20260507023553 15 243 11.3 24.1 0.00 0.00 0.00 80 1019.4
20260507023052 15 245 9.7 22.5 0.00 0.00 0.00 79 1019.4
20260507022546 15 248 11.3 24.1 0.00 0.00 0.00 79 1019.4
20260507022046 15 205 9.7 24.1 0.00 0.00 0.00 79 1019.4
20260507021557 16 255 9.7 22.5 0.00 0.00 0.00 78 1019.5
20260507021046 16 221 9.7 20.9 0.00 0.00 0.00 77 1019.5
20260507020548 16 203 9.7 20.9 0.00 0.00 0.00 77 1019.5
20260507020051 16 227 9.7 24.1 0.00 0.00 0.00 76 1019.5
20260507015539 16 221 11.3 24.1 0.00 0.00 0.00 75 1019.5
20260507015046 17 227 12.9 25.7 0.00 0.00 0.00 74 1019.5
20260507015039 17 210 12.9 25.7 0.00 0.00 0.00 75 1019.5
20260507014659 17 216 12.9 29.0 0.00 0.00 0.00 74 1019.5
20260507013540 17 219 12.9 29.0 0.00 0.00 0.00 73 1019.5
20260507013039 17 210 11.3 22.5 0.00 0.00 0.00 72 1019.5
20260507012540 18 224 9.7 24.1 0.00 0.00 0.00 71 1019.5
20260507012042 18 231 9.7 20.9 0.00 0.00 0.00 70 1019.5
20260507012038 18 210 11.3 24.1 0.00 0.00 0.00 71 1019.5
20260507011059 19 199 9.7 24.1 0.00 0.00 0.00 69 1019.5
20260507011050 19 225 9.7 22.5 0.00 0.00 0.00 69 1019.5
20260507010046 19 227 9.7 24.1 0.00 0.00 0.00 68 1019.5
20260507005537 20 233 9.7 20.9 0.00 0.00 0.00 68 1019.5
20260507005032 20 238 11.3 20.9 0.00 0.00 0.00 67 1019.5
20260507004532 20 236 9.7 19.3 0.00 0.00 0.00 66 1019.5
20260507004032 21 229 8.0 20.9 0.00 0.00 0.00 65 1019.5
20260507003531 21 241 6.4 20.9 0.00 0.00 0.00 63 1019.5
20260507003031 21 254 6.4 17.7 0.00 0.00 0.00 64 1019.5
20260507002533 21 241 8.0 19.3 0.00 0.00 0.00 63 1019.5
20260507002028 21 237 6.4 19.3 0.00 0.00 0.00 62 1019.5
20260507001528 22 195 6.4 17.7 0.00 0.00 0.00 61 1019.4
20260507001027 22 285 6.4 17.7 0.00 0.00 0.00 60 1019.4
20260507000524 22 294 8.0 17.7 0.00 0.00 0.00 60 1019.4
20260507000025 22 221 8.0 19.3 0.00 0.00 0.00 59 1019.5
20260506235523 23 300 4.8 19.3 0.00 0.00 0.00 59 1019.5
20260506235023 22 278 4.8 19.3 0.00 0.00 0.00 61 1019.5
20260506234524 22 264 6.4 22.5 0.00 0.00 0.00 61 1019.4
20260506234023 22 194 8.0 22.5 0.00 0.00 0.00 60 1019.4
20260506233525 22 289 6.4 19.3 0.00 0.00 0.00 60 1019.4
20260506233026 22 217 8.0 20.9 0.00 0.00 0.00 60 1019.4
20260506233019 22 226 8.0 17.7 0.00 0.00 0.00 59 1019.4
20260506232027 23 306 8.0 20.9 0.00 0.00 0.00 57 1019.5
20260506232020 23 232 6.4 20.9 0.00 0.00 0.00 58 1019.4
20260506231030 23 285 8.0 20.9 0.00 0.00 0.00 57 1019.5
20260506230520 23 299 8.0 19.3 0.00 0.00 0.00 58 1019.5
20260506230020 23 324 9.7 20.9 0.00 0.00 0.00 58 1019.5
20260506225520 23 299 9.7 24.1 0.00 0.00 0.00 57 1019.5
20260506225021 23 284 9.7 24.1 0.00 0.00 0.00 58 1019.5
20260506224514 23 271 9.7 19.3 0.00 0.00 0.00 57 1019.6
20260506224013 23 271 11.3 24.1 0.00 0.00 0.00 58 1019.6
20260506223513 23 349 11.3 24.1 0.00 0.00 0.00 57 1019.6
20260506223012 23 299 9.7 24.1 0.00 0.00 0.00 56 1019.7
20260506222510 23 300 8.0 19.3 0.00 0.00 0.00 57 1019.7
20260506222012 23 338 9.7 22.5 0.00 0.00 0.00 57 1019.7
20260506221508 23 314 9.7 22.5 0.00 0.00 0.00 56 1020.0
20260506221016 23 300 9.7 22.5 0.00 0.00 0.00 57 1020.0
20260506221008 23 323 9.7 20.9 0.00 0.00 0.00 57 1020.0
20260506220007 22 300 11.3 22.5 0.00 0.00 0.00 59 1020.0
20260506215507 23 324 9.7 17.7 0.00 0.00 0.00 58 1020.0
20260506215007 23 285 8.0 16.1 0.00 0.00 0.00 57 1020.0
20260506214503 23 338 8.0 19.3 0.00 0.00 0.00 56 1020.0
20260506214002 23 321 9.7 19.3 0.00 0.00 0.00 57 1020.0
20260506213504 23 335 8.0 19.3 0.00 0.00 0.00 58 1020.0
20260506212957 23 15 6.4 16.1 0.00 0.00 0.00 55 1020.0
20260506212459 24 285 4.8 14.5 0.00 0.00 0.00 55 1020.0
20260506211955 23 292 4.8 14.5 0.00 0.00 0.00 56 1020.0
20260506211453 23 300 6.4 16.1 0.00 0.00 0.00 56 1020.0
20260506210950 23 356 4.8 16.1 0.00 0.00 0.00 56 1020.0
20260506210448 23 319 4.8 16.1 0.00 0.00 0.00 58 1020.1
20260506205948 23 8 6.4 16.1 0.00 0.00 0.00 56 1020.1
20260506205448 23 289 6.4 16.1 0.00 0.00 0.00 59 1020.1
20260506204948 23 355 6.4 14.5 0.00 0.00 0.00 55 1020.2
20260506204448 23 331 4.8 11.3 0.00 0.00 0.00 59 1020.2
20260506203946 23 343 4.8 9.7 0.00 0.00 0.00 58 1020.2
20260506203455 22 306 4.8 16.1 0.00 0.00 0.00 58 1020.3
20260506203446 23 302 4.8 16.1 0.00 0.00 0.00 58 1020.3
20260506202455 22 344 4.8 12.9 0.00 0.00 0.00 58 1020.5
20260506202445 22 335 4.8 12.9 0.00 0.00 0.00 57 1020.3
20260506201443 22 0 4.8 11.3 0.00 0.00 0.00 57 1020.5
20260506200949 22 240 6.4 14.5 0.00 0.00 0.00 57 1020.6
20260506200942 21 352 4.8 12.9 0.00 0.00 0.00 61 1020.5
20260506195934 22 304 6.4 16.1 0.00 0.00 0.00 59 1020.6
20260506195435 22 354 6.4 16.1 0.00 0.00 0.00 60 1020.6
20260506194933 21 328 4.8 17.7 0.00 0.00 0.00 62 1020.6
20260506194434 21 0 4.8 17.7 0.00 0.00 0.00 61 1020.6
20260506193928 21 319 4.8 16.1 0.00 0.00 0.00 62 1020.6
20260506193427 21 271 6.4 16.1 0.00 0.00 0.00 63 1020.7
20260506192926 21 339 6.4 17.7 0.00 0.00 0.00 63 1020.7
20260506192418 21 317 6.4 17.7 0.00 0.00 0.00 62 1020.7
20260506191915 21 291 6.4 11.3 0.00 0.00 0.00 64 1020.8
20260506191426 20 307 6.4 14.5 0.00 0.00 0.00 65 1020.8
20260506190917 20 345 8.0 16.1 0.00 0.00 0.00 65 1020.8
20260506190414 20 314 9.7 17.7 0.00 0.00 0.00 64 1020.8
20260506185918 20 0 4.8 11.3 0.00 0.00 0.00 65 1020.8
20260506185912 20 45 8.0 17.7 0.00 0.00 0.00 64 1020.8
20260506184913 20 359 6.4 11.3 0.00 0.00 0.00 65 1020.8
20260506184411 20 321 6.4 11.3 0.00 0.00 0.00 67 1020.8
20260506183912 20 326 6.4 11.3 0.00 0.00 0.00 65 1020.8
20260506183407 20 357 4.8 11.3 0.00 0.00 0.00 67 1020.7
20260506182859 19 357 4.8 11.3 0.00 0.00 0.00 67 1020.7
20260506182358 20 359 6.4 14.5 0.00 0.00 0.00 65 1020.7
20260506181858 19 2 6.4 14.5 0.00 0.00 0.00 67 1020.6
20260506181358 20 1 6.4 11.3 0.00 0.00 0.00 65 1020.6
20260506180857 20 331 4.8 11.3 0.00 0.00 0.00 65 1020.6
20260506180357 20 346 6.4 11.3 0.00 0.00 0.00 69 1020.6
20260506175854 20 300 6.4 11.3 0.00 0.00 0.00 64 1020.6
20260506175355 20 349 4.8 11.3 0.00 0.00 0.00 66 1020.6
20260506174855 20 31 1.6 6.4 0.00 0.00 0.00 68 1020.6
20260506174401 18 39 3.2 6.4 0.00 0.00 0.00 67 1020.6
20260506174355 19 77 1.6 6.4 0.00 0.00 0.00 66 1020.6
20260506173355 18 25 3.2 8.0 0.00 0.00 0.00 68 1020.6
20260506172854 18 2 1.6 8.0 0.00 0.00 0.00 67 1020.6
20260506172355 18 14 3.2 8.0 0.00 0.00 0.00 68 1020.6
20260506171855 18 21 3.2 8.0 0.00 0.00 0.00 68 1020.6
20260506171356 17 6 1.6 6.4 0.00 0.00 0.00 71 1020.6
20260506170851 17 169 1.6 4.8 0.00 0.00 0.00 72 1020.6
20260506170353 17 345 1.6 4.8 0.00 0.00 0.00 69 1020.6
20260506165846 18 230 3.2 9.7 0.00 0.00 0.00 68 1020.6
20260506165345 18 248 3.2 9.7 0.00 0.00 0.00 69 1020.6
20260506164840 17 299 3.2 9.7 0.00 0.00 0.00 71 1020.5
20260506164341 18 320 1.6 8.0 0.00 0.00 0.00 70 1020.5
20260506164330 17 311 1.6 6.4 0.00 0.00 0.00 74 1020.5
20260506163337 16 326 3.2 6.4 0.00 0.00 0.00 75 1020.5
20260506163329 17 254 1.6 6.4 0.00 0.00 0.00 74 1020.5
20260506162328 16 359 3.2 6.4 0.00 0.00 0.00 74 1020.5
20260506161835 16 285 1.6 6.4 0.00 0.00 0.00 76 1020.5
20260506161829 16 349 1.6 6.4 0.00 0.00 0.00 76 1020.5
20260506160834 16 289 1.6 6.4 0.00 0.00 0.00 76 1020.5
20260506160329 15 335 1.6 6.4 0.00 0.00 0.00 78 1020.5
20260506160322 16 320 3.2 6.4 0.00 0.00 0.00 77 1020.5
20260506155319 15 246 1.6 4.8 0.00 0.00 0.00 77 1020.5
20260506154809 15 241 1.6 6.4 0.00 0.00 0.00 79 1020.5
20260506154802 15 306 1.6 6.4 0.00 0.00 0.00 78 1020.5
20260506153755 15 304 3.2 6.4 0.00 0.00 0.00 79 1020.5
20260506153253 15 316 3.2 6.4 0.00 0.00 0.00 80 1020.3
20260506152744 15 307 3.2 8.0 0.00 0.00 0.00 80 1020.3
20260506152240 15 335 3.2 8.0 0.00 0.00 0.00 81 1020.3
20260506151741 15 328 3.2 8.0 0.00 0.00 0.00 82 1020.4
20260506151240 15 300 3.2 8.0 0.00 0.00 0.00 83 1020.4
20260506150739 14 299 1.6 8.0 0.00 0.00 0.00 83 1020.4
20260506150237 14 282 1.6 6.4 0.00 0.00 0.00 84 1020.3
20260506145731 14 220 1.6 4.8 0.00 0.00 0.00 84 1020.3
20260506145232 13 311 1.6 6.4 0.00 0.00 0.00 85 1020.3
20260506144657 13 281 1.6 6.4 0.00 0.00 0.00 85 1020.2
20260506144201 13 223 1.6 4.8 0.00 0.00 0.00 86 1020.2
20260506144157 13 224 0.0 3.2 0.00 0.00 0.00 86 1020.2
20260506143233 13 221 1.6 4.8 0.00 0.00 0.00 86 1020.1
20260506143132 13 222 1.6 4.8 0.00 0.00 0.00 86 1020.1
20260506143127 13 221 0.0 4.8 0.00 0.00 0.00 87 1020.1
20260506141620 13 221 0.0 3.2 0.00 0.00 0.00 87 1020.0
20260506141050 13 221 0.0 4.8 0.00 0.00 0.00 87 1020.0
20260506140545 13 221 1.6 4.8 0.00 0.00 0.00 87 1020.0
20260506140033 13 221 1.6 4.8 0.00 0.00 0.00 87 1019.7
20260506135535 13 215 1.6 4.8 0.00 0.00 0.00 88 1019.7
20260506135033 13 213 1.6 6.4 0.00 0.00 0.00 88 1019.7
20260506134534 13 233 1.6 6.4 0.00 0.00 0.00 88 1019.5
20260506134034 12 238 0.0 4.8 0.00 0.00 0.00 88 1019.5
20260506133532 12 238 0.0 4.8 0.00 0.00 0.00 88 1019.5
20260506133011 12 238 0.0 3.2 0.00 0.00 0.00 88 1019.4
20260506132459 12 238 3.2 6.4 0.00 0.00 0.00 88 1019.4
20260506132453 12 238 1.6 6.4 0.00 0.00 0.00 88 1019.4
20260506131433 12 253 1.6 6.4 0.00 0.00 0.00 88 1019.4
20260506130933 12 228 1.6 8.0 0.00 0.00 0.00 89 1019.4
20260506130440 12 231 1.6 8.0 0.00 0.00 0.00 89 1019.2
20260506125929 12 224 1.6 4.8 0.00 0.00 0.00 89 1019.2
20260506125428 12 220 1.6 4.8 0.00 0.00 0.00 89 1019.2
20260506124933 12 220 1.6 4.8 0.00 0.00 0.00 89 1019.1
20260506124929 12 220 1.6 4.8 0.00 0.00 0.00 89 1019.1
20260506123929 12 224 1.6 4.8 0.00 0.00 0.00 90 1019.1
20260506123428 12 224 0.0 4.8 0.00 0.00 0.00 90 1019.0
20260506122928 12 224 0.0 1.6 0.00 0.00 0.00 90 1019.0
20260506122423 12 224 0.0 1.6 0.00 0.00 0.00 90 1019.0
20260506121917 12 224 0.0 1.6 0.00 0.00 0.00 90 1019.0
20260506121357 12 224 0.0 1.6 0.00 0.00 0.00 90 1019.0
20260506120846 12 224 0.0 3.2 0.00 0.00 0.00 90 1019.0
20260506120320 12 224 0.0 3.2 0.00 0.00 0.00 90 1018.9
20260506115813 12 224 0.0 4.8 0.00 0.00 0.00 89 1018.9
20260506115307 12 224 0.0 4.8 0.00 0.00 0.00 89 1018.9
20260506114807 12 224 0.0 3.2 0.00 0.00 0.00 89 1018.7
20260506114256 12 224 0.0 3.2 0.00 0.00 0.00 89 1018.7
20260506113732 12 224 0.0 3.2 0.00 0.00 0.00 89 1018.7
20260506113209 12 224 1.6 4.8 0.00 0.00 0.00 89 1018.6
20260506112705 12 224 1.6 4.8 0.00 0.00 0.00 89 1018.6
20260506112151 12 224 0.0 3.2 0.00 0.00 0.00 89 1018.6
20260506111638 12 224 0.0 1.6 0.00 0.00 0.00 89 1018.5
20260506111137 12 224 0.0 1.6 0.00 0.00 0.00 89 1018.5
20260506111120 12 224 0.0 1.6 0.00 0.00 0.00 89 1018.5
20260506110728 12 224 0.0 3.2 0.00 0.03 0.00 90 1018.5
20260506105602 12 224 1.6 3.2 0.00 0.03 0.00 90 1018.5
20260506105059 12 224 1.6 3.2 0.00 0.03 0.00 90 1018.5
20260506104601 12 224 0.0 3.2 0.00 0.03 0.00 90 1018.5
20260506104039 12 224 0.0 1.6 0.00 0.03 0.00 90 1018.5
20260506103538 12 224 0.0 1.6 0.00 0.03 0.00 90 1018.5
20260506103033 12 224 0.0 1.6 0.00 0.03 0.00 90 1018.5
20260506102532 12 224 0.0 1.6 0.00 0.03 0.00 89 1018.5
20260506102014 12 224 0.0 1.6 0.00 0.03 0.00 89 1018.5
20260506101515 12 224 0.0 1.6 0.00 0.03 0.00 89 1018.5
20260506101015 12 224 0.0 1.6 0.00 0.03 0.00 89 1018.5
20260506100457 12 224 0.0 1.6 0.00 0.03 0.00 89 1018.5
20260506095950 12 224 0.0 3.2 0.00 0.03 0.00 89 1018.5
20260506095448 12 224 1.6 3.2 0.00 0.03 0.00 89 1018.5
20260506094949 12 224 0.0 3.2 0.00 0.05 0.00 89 1018.5
20260506094447 12 224 0.0 1.6 0.00 0.05 0.00 89 1018.5
20260506093949 12 224 0.0 1.6 0.00 0.05 0.00 89 1018.5
20260506093446 12 224 0.0 0.0 0.00 0.05 0.00 88 1018.5
20260506092939 12 224 0.0 0.0 0.00 0.05 0.00 88 1018.5
20260506092433 12 224 0.0 0.0 0.00 0.05 0.00 88 1018.5
20260506091934 12 224 0.0 1.6 0.00 0.05 0.00 88 1018.5
20260506091355 12 224 0.0 1.6 0.00 0.05 0.00 87 1018.5
20260506090819 13 224 0.0 1.6 0.00 0.05 0.00 87 1018.5
20260506090250 13 224 0.0 3.2 0.00 0.05 0.00 87 1018.5
20260506085737 13 224 0.0 3.2 0.00 0.05 0.00 87 1018.5
20260506085237 13 224 0.0 1.6 0.00 0.08 0.00 87 1018.5
20260506084713 13 224 0.0 0.0 0.00 0.10 0.00 87 1018.5